sat.trackr.live / text

‹ back to catalog

ONEWEB-0092

NORAD 45437 · 2020-020P

PAYLOAD ACTIVE UNKNOWN

§ Identity

Operator
Country
UK
Launch date
2020-03-21
Launch site
TYMSC
Launch vehicle
Mass (kg)
RCS (m²)

Purposes: comms

External: N2YO · Heavens-Above · Gunter

§ Orbital elements

Epoch: 2026-09-20T01:36:10.732896Z

Period
109.81 min
Inclination
87.8974°
Eccentricity
0.0001892
Mean motion
13.11415223 rev/d
Perigee alt
1,216.3 km
Apogee alt
1,219.1 km
Semi-major
7,595.8 km
B*
-1.1275e-3
RAAN
2.2042°
Arg perigee
94.2164°
Mean anomaly
265.9180°
Rev number
31,522

§ Raw data

ONEWEB-00921 45437U 20020P   26263.06679089 -.00000387  00000+0 -11275-2 0  99982 45437  87.8974   2.2042 0001892  94.2164 265.9180 13.11415223315221

JSON: /api/v1/satellites/45437 · /tle

For live sub-satellite position, see the globe view (requires WebGL).

§ Visibility from observer

Set your observer location to see the next 7 days of passes ≥ 10°. The values pass through the URL so the page stays shareable.

No JS? Fill the form by hand. The geolocation button needs JavaScript.